[[{"header":{"parameterUnit":"m.s-1","parameterCategory":1,"la1":30.2991,"la2":30.254,"lo1":-89.0895,"lo2":-89.0444,"dy":0.0017,"dx":0.0017,"nx":28,"ny":28,"refTime":"2024-04-01T09:00:00:Z","depth":0,"parameterNumber":2,"parameterNumberName":"U-component_of_WINDS"},"data":[0,0,0,0,0,0,0,0,0,0,0,0,0,0,0,0,0,0,0,0,0,0,0,0,0,0,0,0,0,0,0,0,0,0,0,0,0,0,0,0,0,0,0,0,0,0,0,0,0,0,0,0,0,0,0,0,0,0,-4.0861,-4.0862,0,-4.0949,-4.095,-4.095,-4.0932,-4.093,-4.0929,-4.0927,-4.1015,-4.1018,-4.1022,0,0,0,0,0,0,0,0,0,0,0,0,0,-4.0675,-4.0679,-4.0861,-4.0862,-4.0863,-4.0948,-4.095,-4.0951,-4.0932,-4.093,-4.0928,-4.0926,-4.1013,-4.1018,-4.1023,0,0,0,0,0,0,0,0,0,0,0,0,0,-4.0759,-4.068,-4.086,-4.0864,-4.0865,-4.0948,-4.095,-4.0951,-4.0933,-4.093,-4.0928,-4.0925,-4.1012,-4.1017,-4.1023,-4.1107,0,0,-4.1041,-4.1043,0,0,0,0,0,0,0,0,-4.0754,-4.0765,-4.0862,-4.0864,-4.0865,-4.0927,-4.0916,-4.1003,-4.0933,-4.0907,-4.0927,-4.0924,-4.0987,-4.0995,-4.1017,-4.1112,-4.1115,-4.1041,-4.1045,-4.1047,-4.1049,0,0,0,0,0,0,0,-4.0748,-4.0761,-4.0895,-4.0864,-4.0866,-4.0861,-4.087,-4.0933,-4.096,-4.0909,-4.0908,-4.0919,-4.0988,-4.1011,-4.1019,-4.1117,-4.1041,-4.1046,-4.105,-4.1052,-4.1285,-4.1288,0,0,0,0,0,0,-4.0741,-4.0757,-4.0892,-4.0898,-4.0803,-4.0866,-4.0876,-4.0909,-4.0959,-4.0964,-4.0921,-4.0917,-4.1002,-4.1012,-4.1022,-4.1123,-4.1047,-4.1053,-4.1056,-4.1282,-4.1286,-4.1288,0,0,0,0,0,0,-4.0737,-4.0753,-4.0889,-4.0827,-4.0844,-4.0872,-4.0909,-4.0912,-4.0936,-4.0968,-4.0972,-4.094,-4.1001,-4.1013,-4.1086,-4.1125,-4.1055,-4.106,-4.1279,-4.1283,-4.1287,-4.1326,0,0,0,0,0,0,-4.0732,-4.0752,-4.0785,-4.0828,-4.0847,-4.0953,-4.0912,-4.0916,-4.0946,-4.0943,-4.0987,-4.0992,-4.1,-4.1078,-4.1092,-4.1132,-4.1065,-4.1276,-4.1281,-4.1286,-4.1321,-4.1331,-4.1339,0,0,0,0,0,-4.0725,-4.0792,-4.0786,-4.0803,-4.0889,-4.0955,-4.0966,-4.0975,-4.095,-4.0982,-4.1003,-4.099,-4.112,-4.1085,-4.1101,-4.1144,-4.1273,-4.1279,-4.1285,-4.1317,-4.1329,-4.1339,0,0,0,0,0,0,-4.0751,-4.0797,-4.0792,-4.0874,-4.0911,-4.0952,-4.0993,-4.0987,-4.1031,-4.1026,-4.1034,-4.1044,-4.1118,-4.1139,-4.11,-4.1228,-4.1193,-4.1202,-4.1211,-4.1223,-4.1232,-4.1224,-4.107,0,0,0,0,0,-4.0767,-4.0817,-4.0855,-4.0924,-4.0943,-4.0965,-4.0994,-4.0998,-4.1036,-4.1051,-4.1077,-4.1114,-4.1162,-4.1194,-4.1241,-4.1325,-4.1334,-4.1362,-4.1371,-4.1378,-4.1386,-4.1431,-4.1444,-4.1309,-4.1309,-4.1308,0,0,-4.0798,-4.083,-4.0861,-4.093,-4.0959,-4.101,-4.0978,-4.1034,-4.1072,-4.1059,-4.1129,-4.115,-4.1192,-4.1271,-4.1307,-4.129,-4.1426,-4.1386,-4.1392,-4.1395,-4.1439,-4.1452,-4.1463,-4.1313,-4.1312,-4.1311,0,0,-4.0882,-4.0912,-4.0973,-4.1003,-4.1047,-4.1062,-4.1077,-4.1119,-4.1132,-4.1203,-4.1195,-4.124,-4.1325,-4.1354,-4.138,-4.1478,-4.1468,-4.1493,-4.1539,-4.1583,-4.1594,-4.1603,-4.1636,-4.1649,-4.1501,-4.1501,-4.1501,0,-4.0916,-4.0994,-4.1004,-4.1061,-4.1091,-4.1084,-4.1145,-4.1173,-4.1231,-4.1251,-4.1232,-4.1338,-4.1365,-4.1451,-4.1475,-4.1497,-4.1513,-4.1487,-4.1592,-4.1601,-4.161,-4.1642,-4.1655,-4.1504,-4.1503,-4.1503,-4.1503,0,-4.1032,-4.1087,-4.113,-4.1187,-4.1222,-4.1281,-4.1299,-4.1334,-4.1336,-4.1352,-4.1424,-4.1458,-4.1511,-4.1532,-4.1534,-4.1618,-4.1606,-4.159,-4.1554,-4.1625,-4.1655,-4.1668,-4.1508,-4.1507,-4.1506,-4.1505,0,0,-4.1132,-4.1195,-4.1211,-4.1236,-4.1286,-4.1328,-4.1386,-4.1439,-4.1468,-4.1509,-4.1557,-4.163,-4.1615,-4.1645,-4.165,-4.1689,-4.1763,-4.1667,-4.1669,-4.1682,-4.1856,-4.1867,-4.1881,-4.1758,-4.176,-4.1762,-4.1852,0,-4.122,-4.1323,-4.1335,-4.1427,-4.1477,-4.1472,-4.1523,-4.1558,-4.1576,-4.1621,-4.164,-4.169,-4.1668,-4.1686,-4.1724,-4.1745,-4.1797,-4.174,-4.1801,-4.1803,-4.1789,-4.1897,-4.1908,-4.1992,-4.1864,-4.1866,-4.1868,0,-4.1335,-4.1379,-4.1476,-4.1519,-4.1541,-4.1586,-4.1636,-4.1679,-4.172,-4.173,-4.1764,-4.1765,-4.1825,-4.1789,-4.1871,-4.1831,-4.1858,-4.1872,-4.1876,-4.188,-4.1838,-4.1902,-4.2019,-4.2031,-4.1887,-4.1885,-4.1884,0,-4.1396,-4.1481,-4.155,-4.1572,-4.1624,-4.1656,-4.1679,-4.1718,-4.1749,-4.1793,-4.1813,-4.1863,-4.1889,-4.1928,-4.1942,-4.1915,-4.2023,-4.1988,-4.2032,-4.2031,-4.2053,-4.2051,-4.2173,-4.2073,-4.2073,-4.2073,-4.2073,0,-4.1491,-4.155,-4.1578,-4.162,-4.1686,-4.17,-4.1765,-4.1786,-4.1821,-4.1867,-4.1866,-4.1909,-4.1925,-4.1971,-4.1983,-4.2048,-4.2061,-4.207,-4.2071,-4.2069,-4.2067,-4.2084,-4.2078,-4.2076,-4.2076,-4.2075,-4.2074,0,-4.1569,-4.1591,-4.1665,-4.1709,-4.1722,-4.1769,-4.1806,-4.1846,-4.1864,-4.1923,-4.1937,-4.1965,-4.2019,-4.2037,-4.2102,-4.211,-4.2186,-4.2184,-4.2172,-4.2172,-4.2213,-4.2209,-4.2349,-4.2368,-4.2258,-4.2259,-4.226,0,-4.1627,-4.1673,-4.1723,-4.1754,-4.1778,-4.1828,-4.1861,-4.1876,-4.1909,-4.196,-4.1994,-4.2048,-4.2091,-4.2177,-4.2203,-4.2253,-4.2251,-4.2297,-4.2258,-4.2253,-4.2249,-4.2245,-4.2249,-4.2303,-4.2304,-4.2305,-4.2306,0,-4.1728,-4.1736,-4.1783,-4.1834,-4.1873,-4.1914,-4.1953,-4.1978,-4.2,-4.2037,-4.2093,-4.2127,-4.2194,-4.2246,-4.2298,-4.2321,-4.2317,-4.2318,-4.2331,-4.2327,-4.2317,-4.2321,-4.2189,-4.2314,-4.2313,-4.2313,-4.2312,-4.2312,-4.1797,-4.1837,-4.1878,-4.193,-4.1962,-4.1999,-4.2039,-4.2063,-4.211,-4.2166,-4.2172,-4.2232,-4.2271,-4.234,-4.2366,-4.2412,-4.2399,-4.2417,-4.2421,-4.2425,-4.2427,-4.2312,-4.2422,-4.2421,-4.2421,-4.2421,-4.2421,0,-4.1896,-4.1922,-4.1971,-4.2026,-4.2067,-4.2062,-4.2105,-4.2139,-4.2192,-4.223,-4.2273,-4.2337,-4.2389,-4.2419,-4.2471,-4.2502,-4.2501,-4.2515,-4.2511,-4.2516,-4.2437,-4.242,-4.2514,-4.2514,-4.2514,-4.2514,-4.2514,-4.2514,-4.1952,-4.2019,-4.2033,-4.2116,-4.2142,-4.2201,-4.2226,-4.226,-4.229,-4.2361,-4.2405,-4.2425,-4.246,-4.2514,-4.2561,-4.2569,-4.2587,-4.2601,-4.2607,-4.2532,-4.2522,-4.2513,-4.2497,-4.2606,-4.2606,-4.2683,-4.2683,-4.2684]},{"header":{"parameterUnit":"m.s-1","parameterCategory":1,"la1":30.2991,"la2":30.254,"lo1":-89.0895,"lo2":-89.0444,"dy":0.0017,"dx":0.0017,"nx":28,"ny":28,"refTime":"2024-04-01T09:00:00:Z","depth":0,"parameterNumber":3,"parameterNumberName":"V-component_of_WINDS"},"data":[0,0,0,0,0,0,0,0,0,0,0,0,0,0,0,0,0,0,0,0,0,0,0,0,0,0,0,0,0,0,0,0,0,0,0,0,0,0,0,0,0,0,0,0,0,0,0,0,0,0,0,0,0,0,0,0,0,0,4.0219,4.022,0,4.0332,4.0333,4.0334,4.0365,4.0364,4.0364,4.0363,4.0473,4.0476,4.048,0,0,0,0,0,0,0,0,0,0,0,0,0,4.0025,4.0028,4.0218,4.022,4.0221,4.0331,4.0333,4.0334,4.0365,4.0364,4.0364,4.0363,4.0472,4.0476,4.048,0,0,0,0,0,0,0,0,0,0,0,0,0,4.012,4.0029,4.0218,4.025,4.0254,4.0331,4.0333,4.0335,4.0365,4.0364,4.0363,4.0363,4.047,4.0475,4.0481,4.0532,0,0,4.0497,4.0499,0,0,0,0,0,0,0,0,4.0115,4.0127,4.0244,4.0248,4.0253,4.0333,4.0305,4.0401,4.0366,4.0323,4.0363,4.0362,4.0427,4.0436,4.0459,4.0537,4.0542,4.0497,4.05,4.0503,4.0504,0,0,0,0,0,0,0,4.0108,4.0123,4.0263,4.0246,4.0251,4.0257,4.027,4.0323,4.0379,4.0327,4.0329,4.0342,4.0429,4.0454,4.0462,4.0544,4.0497,4.0502,4.0505,4.0507,4.0672,4.0673,0,0,0,0,0,0,4.0097,4.0117,4.0259,4.0266,4.018,4.0262,4.0276,4.0308,4.0378,4.0388,4.0343,4.0343,4.0445,4.0455,4.0465,4.0532,4.0503,4.0508,4.0511,4.0671,4.0673,4.0674,0,0,0,0,0,0,4.0093,4.0109,4.0255,4.0193,4.0212,4.0266,4.0302,4.0311,4.0336,4.0391,4.04,4.0358,4.0445,4.0458,4.0516,4.0537,4.051,4.0515,4.067,4.0672,4.0673,4.0665,0,0,0,0,0,0,4.0087,4.0108,4.0129,4.0193,4.0215,4.0305,4.0304,4.0314,4.0346,4.0347,4.0408,4.0417,4.0445,4.0508,4.0522,4.0543,4.0519,4.0668,4.067,4.0673,4.0664,4.0667,4.0669,0,0,0,0,0,4.008,4.012,4.013,4.0147,4.0243,4.0306,4.0319,4.0352,4.0347,4.0368,4.0404,4.0415,4.0532,4.0514,4.0529,4.0553,4.0667,4.067,4.0672,4.0663,4.0666,4.0669,0,0,0,0,0,0,4.0054,4.0129,4.014,4.0203,4.0249,4.0312,4.0339,4.0354,4.04,4.04,4.0437,4.0451,4.0507,4.0535,4.0514,4.0607,4.0599,4.0605,4.0587,4.059,4.0593,4.0585,4.0523,0,0,0,0,0,4.0057,4.0104,4.0166,4.0215,4.0237,4.0284,4.0313,4.0335,4.0383,4.0402,4.0441,4.0486,4.0533,4.0563,4.0609,4.0668,4.0682,4.0692,4.0694,4.0696,4.0701,4.0736,4.0741,4.0683,4.0683,4.0683,0,0,4.006,4.0107,4.0134,4.0211,4.0249,4.0296,4.03,4.0349,4.0384,4.0408,4.0467,4.0498,4.055,4.0609,4.0637,4.0635,4.072,4.0699,4.07,4.0704,4.0739,4.0744,4.0749,4.0685,4.0685,4.0684,0,0,4.0093,4.0132,4.0179,4.0217,4.0275,4.0307,4.0318,4.0379,4.0402,4.0461,4.0481,4.0522,4.0602,4.0639,4.0668,4.0716,4.0728,4.073,4.0743,4.0776,4.0781,4.0785,4.0804,4.081,4.0734,4.0734,4.0734,0,4.009,4.0163,4.02,4.025,4.0283,4.0309,4.0357,4.0391,4.046,4.0482,4.0479,4.0582,4.0618,4.0687,4.0699,4.0721,4.0735,4.0723,4.0777,4.0782,4.0787,4.0805,4.0811,4.0734,4.0734,4.0734,4.0734,0,4.0158,4.0208,4.0239,4.0308,4.0345,4.0392,4.0435,4.0468,4.0487,4.0518,4.0579,4.0624,4.0681,4.0699,4.0716,4.0771,4.0768,4.077,4.0763,4.0792,4.0809,4.0816,4.0734,4.0734,4.0734,4.0734,0,0,4.0177,4.0268,4.0278,4.0311,4.0378,4.0417,4.0465,4.0524,4.0551,4.0598,4.064,4.0708,4.0711,4.0744,4.0766,4.0796,4.0833,4.0795,4.0797,4.0802,4.0897,4.0896,4.0904,4.0841,4.0842,4.0843,4.0894,0,4.0219,4.031,4.0345,4.0418,4.0466,4.0492,4.0535,4.058,4.061,4.0654,4.0687,4.0736,4.0736,4.0756,4.0786,4.0822,4.0853,4.0818,4.088,4.0882,4.0868,4.0913,4.0911,4.0957,4.09,4.0902,4.0902,0,4.028,4.0331,4.041,4.0473,4.0494,4.0532,4.0589,4.063,4.0681,4.0702,4.074,4.0761,4.0812,4.0801,4.0873,4.0849,4.0876,4.0897,4.0899,4.0908,4.0895,4.0923,4.0972,4.0979,4.0913,4.0912,4.0912,0,4.0288,4.0376,4.0435,4.0462,4.0536,4.0563,4.0594,4.0645,4.0678,4.0727,4.0749,4.0801,4.0831,4.0871,4.0905,4.0894,4.0974,4.0965,4.0992,4.0991,4.1009,4.1007,4.1063,4.1023,4.1023,4.1023,4.1023,0,4.0332,4.038,4.0441,4.0477,4.0531,4.0571,4.0623,4.0656,4.0701,4.0744,4.0768,4.0807,4.085,4.0894,4.0921,4.0977,4.0989,4.1006,4.1013,4.1006,4.1004,4.1025,4.1023,4.1025,4.1024,4.1024,4.1024,0,4.0351,4.0394,4.0461,4.0526,4.0544,4.0581,4.0637,4.0673,4.0705,4.0759,4.0773,4.0823,4.0877,4.0915,4.0983,4.1001,4.1062,4.1068,4.1046,4.105,4.1075,4.1073,4.1148,4.116,4.111,4.111,4.1111,0,4.0378,4.0416,4.0486,4.0518,4.0551,4.0601,4.0636,4.0675,4.071,4.0772,4.0801,4.0857,4.0904,4.0988,4.103,4.1082,4.109,4.1113,4.1098,4.109,4.1093,4.1091,4.1096,4.1116,4.1116,4.1116,4.1116,0,4.042,4.044,4.049,4.0549,4.059,4.0637,4.0684,4.0708,4.0756,4.0794,4.0851,4.0887,4.0959,4.1014,4.1071,4.1102,4.1118,4.1121,4.113,4.1123,4.111,4.1119,4.1054,4.1119,4.1119,4.1119,4.1119,4.1118,4.0445,4.0481,4.0537,4.0593,4.0633,4.0677,4.0715,4.0753,4.0802,4.0865,4.0884,4.0943,4.0994,4.1073,4.1105,4.1151,4.115,4.1162,4.1166,4.1169,4.117,4.1101,4.1161,4.1161,4.1161,4.1161,4.1161,0,4.0491,4.0529,4.058,4.0647,4.0691,4.0703,4.0756,4.0791,4.0844,4.0891,4.0938,4.1003,4.1058,4.1104,4.116,4.1188,4.1196,4.1201,4.12,4.1208,4.1167,4.1154,4.1194,4.1194,4.1194,4.1194,4.1194,4.1194,4.052,4.0583,4.0609,4.0691,4.0728,4.0788,4.0818,4.0858,4.0896,4.0969,4.1016,4.1046,4.1093,4.1153,4.1203,4.1215,4.1235,4.1239,4.1252,4.1214,4.121,4.1206,4.1195,4.1242,4.1242,4.1289,4.129,4.129]}]]